Latest Coastal Weather Observations for Willis Island

IDQ60701

Issued at 6:42 am EST Saturday 7 May 2016 (issued every 10 minutes, with the page automatically refreshed every 10 minutes)

About coastal observations | Map of coastal stations | Coastal observations for QLD | Marine services | Other Formats
Station Details ID: 200283 Name: WILLIS ISLAND Lat: -16.29 Lon: 149.97 Height: 9.29 m
Data from the previous 72 hours. | See also: Recent months at Willis Island
Date/Time
EST
Temp

°C
Wind Pressure Rain
since 9am
mm
Weather Cloud Vis
km
Sea
Height
m
Swell
Dir
 
Speed
knots
Gust
knots
hPa Trend Height
m
Period
s
Dir
07/06:30am 27.1 ESE 17 19 1012.8 - 0.0 - - - - - - -
07/06:00am 27.1 SE 17 20 1012.5 F 0.0 - - - - - - -
07/05:30am 27.1 ESE 16 20 1012.4 - 0.0 - - - - - - -
07/05:00am 26.9 ESE 16 19 1012.1 - 0.0 - - - - - - -
07/04:30am 26.9 ESE 16 18 1012.0 - 0.0 - - - - - - -
07/04:00am 27.0 ESE 17 19 1011.8 - 0.0 - - - - - - -
07/03:30am 26.9 ESE 15 17 1012.0 - 0.0 - - - - - - -
07/03:00am 27.0 ESE 13 16 1012.3 F 0.0 - - - - - - -
07/02:30am 27.0 ESE 14 17 1012.4 - 0.0 - - - - - - -
07/02:00am 27.0 ESE 15 18 1012.5 - 0.0 - - - - - - -
07/01:30am 27.0 ESE 15 18 1012.9 - 0.0 - - - - - - -
07/01:00am 27.0 ESE 15 18 1013.1 - 0.0 - - - - - - -
07/12:30am 27.1 ESE 16 19 1013.3 - 0.0 - - - - - - -
07/12:00am 27.0 ESE 15 17 1013.8 R 0.0 - - - - - - -
 
Date/Time
EST
Temp

°C
Wind Pressure Rain
since 9am
mm
Weather Cloud Vis
km
Sea
Height
m
Swell
Dir
 
Speed
knots
Gust
knots
hPa Trend Height
m
Period
s
Dir
06/11:30pm 27.0 ESE 15 18 1014.0 - 0.0 - - - - - - -
06/11:00pm 27.2 ESE 16 19 1014.1 - 0.0 - - - - - - -
06/10:30pm 27.0 ESE 16 18 1014.3 - 0.0 - - - - - - -
06/10:00pm 27.1 SE 17 19 1014.4 - 0.0 - - - - - - -
06/09:30pm 27.1 SE 17 19 1014.3 - 0.0 - - - - - - -
06/09:00pm 27.1 SE 17 19 1014.3 R 0.0 - - - - - - -
06/08:30pm 27.1 ESE 17 19 1014.3 - 0.0 - - - - - - -
06/08:00pm 27.2 ESE 17 19 1014.0 - 0.0 - - - - - - -
06/07:30pm 27.3 ESE 17 20 1013.6 - 0.0 - - - - - - -
06/07:00pm 27.2 ESE 16 19 1013.4 - 0.0 - - - - - - -
06/06:30pm 27.2 SE 16 19 1013.0 - 0.0 - - - - - - -
06/06:00pm 27.1 ESE 15 18 1012.6 F 0.0 Fine Mostly clear 30 1 1.2 6 SE
06/05:30pm 27.3 ESE 15 18 1012.4 - 0.0 - - - - - - -
06/05:00pm 27.5 ESE 15 19 1012.1 - 0.0 - - - - - - -
06/04:30pm 27.9 ESE 15 17 1011.9 - 0.0 - - - - - - -
06/04:00pm 28.4 ESE 15 17 1011.7 - 0.0 - - - - - - -
06/03:30pm 28.7 SE 15 17 1011.6 - 0.0 - - - - - - -
06/03:00pm 29.1 ESE 15 18 1011.7 F 0.0 Fine Mostly clear 30 1 1.3 8 SE
06/02:30pm 29.4 ESE 14 16 1011.7 - 0.0 - - - - - - -
06/02:00pm 29.5 ESE 15 17 1011.9 - 0.0 - - - - - - -
06/01:30pm 29.1 ESE 15 17 1012.1 - 0.0 - - - - - - -
06/01:00pm 28.9 ESE 14 17 1012.3 - 0.0 - - - - - - -
06/12:30pm 29.7 ESE 15 17 1012.9 - 0.0 - - - - - - -
06/12:00pm 29.2 E 15 17 1013.4 F 0.0 Fine Partly cloudy 30 2 1.5 6 SE
06/11:30am 29.1 ESE 15 17 1013.9 - 0.0 - - - - - - -
06/11:00am 29.2 ESE 15 17 1014.2 - 0.0 - - - - - - -
06/10:30am 28.3 ESE 14 16 1014.8 - 0.0 - - - - - - -
06/10:00am 28.6 ESE 15 18 1015.2 - 0.0 - - - - - - -
06/09:30am 28.5 ESE 15 17 1015.2 - 0.0 - - - - - - -
06/09:00am 28.4 ESE 16 18 1014.8 R 0.0 Fine Mostly cloudy 30 2 1.5 6 SE
06/08:30am 28.2 ESE 16 19 1014.6 - 0.0 - - - - - - -
06/08:00am 27.6 ESE 16 19 1014.1 - 0.0 - - - - - - -
06/07:30am 27.4 E 16 19 1013.8 - 0.0 - - - - - - -
06/07:00am 26.9 ESE 16 18 1013.3 - 0.0 - - - - - - -
06/06:30am 26.6 ESE 16 19 1013.1 - 0.0 - - - - - - -
06/06:00am 26.6 ESE 15 18 1013.0 F 0.0 - - - - - - -
06/05:30am 26.7 ESE 16 19 1012.8 - 0.0 - - - - - - -
06/05:00am 26.7 ESE 17 19 1012.5 - 0.0 - - - - - - -
06/04:30am 26.7 ESE 16 19 1012.5 - 0.0 - - - - - - -
06/04:00am 26.9 ESE 16 18 1012.3 - 0.0 - - - - - - -
06/03:30am 26.9 ESE 16 18 1012.4 - 0.0 - - - - - - -
06/03:00am 27.0 SE 15 17 1012.7 S 0.0 - - - - - - -
06/02:30am 26.9 ESE 14 18 1012.8 - 0.0 - - - - - - -
06/02:00am 27.0 ESE 15 17 1013.1 - 0.0 - - - - - - -
06/01:30am 27.0 ESE 15 18 1013.2 - 0.0 - - - - - - -
06/01:00am 26.9 ESE 14 17 1013.5 - 0.0 - - - - - - -
06/12:30am 27.1 ESE 14 16 1013.7 - 0.0 - - - - - - -
06/12:00am 27.1 ESE 14 16 1014.1 F 0.0 - - - - - - -
 
Date/Time
EST
Temp

°C
Wind Pressure Rain
since 9am
mm
Weather Cloud Vis
km
Sea
Height
m
Swell
Dir
 
Speed
knots
Gust
knots
hPa Trend Height
m
Period
s
Dir
05/11:30pm 27.1 ESE 16 18 1014.5 - 0.0 - - - - - - -
05/11:00pm 27.0 ESE 15 17 1014.8 - 0.0 - - - - - - -
05/10:30pm 27.2 ESE 15 17 1014.9 - 0.0 - - - - - - -
05/10:00pm 27.1 ESE 17 19 1014.9 - 0.0 - - - - - - -
05/09:30pm 27.2 ESE 16 19 1014.8 - 0.0 - - - - - - -
05/09:00pm 27.3 ESE 17 19 1015.1 R 0.0 - - - - - - -
05/08:30pm 27.2 ESE 16 18 1015.0 - 0.0 - - - - - - -
05/08:00pm 27.3 ESE 15 18 1014.8 - 0.0 - - - - - - -
05/07:30pm 27.3 ESE 16 18 1014.4 - 0.0 - - - - - - -
05/07:00pm 27.4 SE 15 17 1014.1 - 0.0 - - - - - - -
05/06:30pm 27.3 SE 16 18 1013.6 - 0.0 - - - - - - -
05/06:00pm 27.3 SE 16 18 1013.3 F 0.0 Distant precip. Partly cloudy 30 1 1.2 8 SE
05/05:30pm 27.4 SE 15 17 1013.1 - 0.0 - - - - - - -
05/05:00pm 27.8 SE 15 17 1012.7 - 0.0 - - - - - - -
05/04:30pm 28.0 SE 15 17 1012.4 - 0.0 - - - - - - -
05/04:00pm 28.3 SE 15 16 1012.3 - 0.0 - - - - - - -
05/03:30pm 28.2 SE 14 17 1012.2 - 0.0 - - - - - - -
05/03:00pm 29.4 SE 14 16 1012.2 R 0.0 Fine Partly cloudy 30 1 1.2 8 SE
05/02:30pm 29.4 ESE 13 16 1012.2 - 0.0 - - - - - - -
05/02:00pm 29.4 ESE 13 15 1012.3 - 0.0 - - - - - - -
05/01:30pm 29.8 ESE 12 14 1012.5 - 0.0 - - - - - - -
05/01:00pm 29.5 ESE 13 16 1012.8 - 0.0 - - - - - - -
05/12:30pm 29.5 ESE 13 15 1013.3 - 0.0 - - - - - - -
05/12:00pm 29.6 ESE 14 16 1013.7 F 0.0 Fine Mostly cloudy 30 2 1.3 8 SE
05/11:30am 29.3 ESE 14 17 1014.0 - 0.0 - - - - - - -
05/11:00am 29.4 ESE 15 17 1014.4 - 0.0 - - - - - - -
05/10:30am 28.9 ESE 15 17 1015.0 - 0.0 - - - - - - -
05/10:00am 28.7 ESE 14 17 1015.1 - 0.0 - - - - - - -
05/09:30am 28.5 ESE 15 17 1015.2 - 0.0 - - - - - - -
05/09:00am 28.9 ESE 15 17 1015.0 F 0.0 Fine Partly cloudy 30 2 1.3 8 SE
05/08:30am 28.5 E 15 17 1014.9 - 0.0 - - - - - - -
05/08:00am 28.3 E 16 19 1014.4 - 0.0 - - - - - - -
05/07:30am 27.9 ESE 15 17 1014.4 - 0.0 - - - - - - -
05/07:00am 27.0 ESE 15 17 1014.3 - 0.0 - - - - - - -
05/06:30am 27.0 ESE 17 20 1014.1 - 0.0 - - - - - - -
05/06:00am 27.2 ESE 15 17 1013.8 R 0.0 - - - - - - -
05/05:30am 27.1 ESE 16 19 1013.3 - 0.0 - - - - - - -
05/05:00am 27.0 ESE 16 18 1013.2 - 0.0 - - - - - - -
05/04:30am 27.1 ESE 16 18 1013.0 - 0.0 - - - - - - -
05/04:00am 27.2 ESE 15 17 1012.9 - 0.0 - - - - - - -
05/03:30am 27.2 ESE 15 18 1012.9 - 0.0 - - - - - - -
05/03:00am 27.2 ESE 17 19 1012.8 F 0.0 - - - - - - -
05/02:30am 27.0 ESE 14 16 1012.9 - 0.0 - - - - - - -
05/02:00am 27.0 ESE 14 17 1013.3 - 0.0 - - - - - - -
05/01:30am 27.1 ESE 15 17 1013.4 - 0.0 - - - - - - -
05/01:00am 26.8 ESE 16 18 1013.8 - 0.0 - - - - - - -
05/12:30am 26.3 ESE 16 19 1014.1 - 0.0 - - - - - - -
05/12:00am 27.2 SE 15 17 1014.5 R 0.0 - - - - - - -
 
Date/Time
EST
Temp

°C
Wind Pressure Rain
since 9am
mm
Weather Cloud Vis
km
Sea
Height
m
Swell
Dir
 
Speed
knots
Gust
knots
hPa Trend Height
m
Period
s
Dir
04/11:30pm 27.2 ESE 15 17 1014.5 - 0.0 - - - - - - -
04/11:00pm 27.3 SE 15 17 1015.0 - 0.0 - - - - - - -
04/10:30pm 27.1 SE 15 17 1015.1 - 0.0 - - - - - - -
04/10:00pm 27.1 SE 14 16 1015.0 - 0.0 - - - - - - -
04/09:30pm 27.0 SE 14 16 1015.1 - 0.0 - - - - - - -
04/09:00pm 27.2 SE 14 16 1015.0 R 0.0 - - - - - - -
04/08:30pm 27.1 SE 13 15 1014.7 - 0.0 - - - - - - -
04/08:00pm 27.2 SE 12 14 1014.5 - 0.0 - - - - - - -
04/07:30pm 27.0 SE 12 13 1014.1 - 0.0 - - - - - - -
04/07:00pm 27.2 SE 11 13 1013.6 - 0.0 - - - - - - -
04/06:30pm 27.1 ESE 11 13 1013.2 - 0.0 - - - - - - -
04/06:00pm 27.2 ESE 11 13 1012.7 R 0.0 Distant precip. Mostly cloudy 30 1 1.2 8 SE
04/05:30pm 27.3 ESE 10 12 1012.4 - 0.0 - - - - - - -
04/05:00pm 27.5 ESE 9 11 1012.2 - 0.0 - - - - - - -
04/04:30pm 27.9 ESE 9 13 1011.9 - 0.0 - - - - - - -
04/04:00pm 28.0 ESE 10 12 1011.6 - 0.0 - - - - - - -
04/03:30pm 28.5 E 11 13 1011.5 - 0.0 - - - - - - -
04/03:00pm 28.8 E 10 12 1011.4 S 0.0 Fine Mostly cloudy 30 1 1.2 8 SE
04/02:30pm 28.9 E 11 14 1011.5 - 0.0 - - - - - - -
04/02:00pm 29.1 E 11 13 1011.7 - 0.0 - - - - - - -
04/01:30pm 29.4 ENE 11 13 1011.9 - 0.0 - - - - - - -
04/01:00pm 29.3 ENE 12 14 1012.2 - 0.0 - - - - - - -
04/12:30pm 29.4 E 13 15 1012.6 - 0.0 - - - - - - -
04/12:00pm 29.2 E 13 15 1013.0 F 0.0 Fine Partly cloudy 30 2 1.2 8 SE
04/11:30am 29.1 E 12 14 1013.5 - 0.0 - - - - - - -
04/11:00am 29.3 E 12 14 1014.0 - 0.0 - - - - - - -
04/10:30am 29.3 E 13 16 1014.3 - 0.0 - - - - - - -
04/10:00am 29.0 E 13 15 1014.6 - 0.0 - - - - - - -
04/09:30am 28.3 E 15 16 1014.9 - 0.0 - - - - - - -
04/09:00am 28.7 E 14 16 1014.7 R 0.0 Fine Partly cloudy 30 2 1.2 8 SE
04/08:30am 28.4 E 13 15 1014.5 - 0.0 - - - - - - -
04/08:00am 28.2 ESE 13 14 1014.2 - 0.0 - - - - - - -
04/07:30am 28.0 ESE 13 14 1013.9 - 0.0 - - - - - - -
04/07:00am 27.5 ESE 12 15 1013.7 - 0.0 - - - - - - -

Other Formats:

Comma delimited format used in spreadsheet applications
http://www.bom.gov.au/fwo/IDQ60701/IDQ60701.94299.axf

JavaScript Object Notation format (JSON) in row-major order
http://www.bom.gov.au/fwo/IDQ60701/IDQ60701.94299.json